Terminal Aerodrome Forecast
Issued by NWS Albany, NY

Home | Current Version | Previous Version | Text Only | Print | Product List | Glossary On
Versions: 1 2 3 4 5 6 7 8 9 10 11 12 13 14 15
000
FTUS41 KALY 272300
TAFALB
TAF
KALB 272327Z 2800/2824 31008KT P6SM SCT050 BKN150
     FM280800 VRB03KT P6SM SCT040 SCT250
     FM281500 33012KT P6SM SCT040=

USA.gov is the U.S. government's official web portal to all federal, state and local government web resources and services.